ROMMA est une association bénévole à but non lucratif. Votre soutien est indispensable : ADHERER à ROMMA ou FAIRE un DON

Val-d'Isère - (73, Savoie)

Haute-Maurienne (1850 m)   Longitude: 6° 58' 52'' E   Latitude: 45° 26' 53'' N Station partenaire n°93
 

Détail journalier du     <<     >>

Température Precipitation Humidité Vent Dir Rafale Dir. rafale Ensol.
Heure (°C) (mm) (%) (km/h) (km/h) (min)
01:00 2.00901E3E0
02:00 1.90901E5E0
03:00 1.50902ESE10ESE0
04:00 0.40882E6SSE0
05:00 0.00852E5E0
06:00 -0.50841ESE13E0
07:00 -0.80833SE11ESE0
08:00 0.308205ESE30
09:00 1.70721ESE6ENE60
10:00 3.00657E16E60
11:00 5.60597E13ESE60
12:00 7.305211ESE16E60
13:00 9.40477ESE16ESE60
14:00 9.10476E15E60
15:00 10.30436ESE15E60
16:00 9.90456ESE15ESE60
17:00 10.30458ESE15ESE60
18:00 8.20496ESE15ESE30
19:00 7.105310E18ESE0
20:00 6.50577E16ENE0
21:00 5.20623E11SE0
22:00 4.70639E16ESE0
23:00 4.80639E16E0
minuit 4.30647E15E0

Graphique du 17-04-2019

 

Serveur OMMA